Regional Weather Roundup
Issued by NWS Goodland, KS

Home | Current Version | Previous Version | Graphics & Text | Print | Product List | Glossary On
Versions: 1 2 3 4 5 6 7 8 9 10 11 12 13 14 15 16 17 18 19 20 21 22 23 24 25 26 27 28 29 30 31 32 33 34 35 36 37 38 39 40 41 42 43 44 45 46 47 48 49 50
000
ASUS43 KGLD 300759
RWRGLD

GOODLAND FORECAST AREA HOURLY WEATHER ROUNDUP
NATIONAL WEATHER SERVICE GOODLAND KS
200 AM MDT SAT APR 30 2016

...OFFICIAL OBSERVATIONS...

CITY           SKY/WX    TMP DP  RH WIND       PRES   REMARKS
GOODLAND KS    CLOUDY    32  31  96 NW15      29.81F
HILL CITY KS   CLOUDY    42  40  92 N16       29.76F
IMPERIAL NEB   LGT SNOW  33  32  96 NW13      29.84F FOG
MCCOOK NEB     LGT RAIN  38  36  92 NE12      29.80F FOG
AKRON CO       LGT SNOW  30  29  96 N14       29.85F FOG     WCI  19
BURLINGTON CO  CLOUDY    33  30  88 N13       29.82F FOG
LIMON CO       CLOUDY    29  28  96 NW15      29.83F WCI  18
$$

...UNOFFICIAL OBSERVATIONS...

CITY           SKY/WX    TMP DP  RH WIND       PRES   REMARKS
COLBY KS       DRIZZLE   34  34 100 NW12      29.81F
GOVE KS          N/A     40  32  73 MISG        N/A
LENORA KS        N/A     40  32  73 MISG        N/A
NORTON KS      CLOUDY    39  37  93 N12       29.75F FOG
SHARON SPRINGS   N/A     33  32  97 N13G20      N/A
TRIBUNE KS     CLOUDY    36  34  93 NW13      29.84S
KIT CARSON CO    N/A     32  30  92 MISG        N/A
YUMA CO          N/A     32  32  99 CALM        N/A
$$




USA.gov is the U.S. government's official web portal to all federal, state and local government web resources and services.